Weather History for Nassau, Bahamas

Change the Weather History Date:

Tuesday, September 18, 2012

  Actual Average Record
Temperature  
Mean Temperature 84 °F -  
Max Temperature 91 °F 86 °F 95 °F (2011)
Min Temperature 76 °F 73 °F 73 °F (1997)
Cooling Degree Days 18    
Growing Degree Days 34 (Base 50)    
Moisture  
Dew Point 75 °F    
Average Humidity 71    
Maximum Humidity 84    
Minimum Humidity 43    
Precipitation  
Precipitation 0.00 in 0.23 in - ()
Sea Level Pressure  
Sea Level Pressure 29.99 in    
Wind  
Wind Speed 4 mph ()    
Max Wind Speed 9 mph    
Max Gust Speed -    
Visibility 7.1 miles    
Events      
Averages and records for this station are not official NWS values.
T = Trace of Precipitation, MM = Missing Value Source: Averaged Metar Reports

Daily Weather History Graph

Daily Weather History Graph

Search for Another Location

Airport:

Trip Planner

Search our weather history database for the weather conditions in past years. The results will help you decide how hot, cold, wet, or windy it might be!

Date:

Astronomy

Sep. 18, 2012 Rise Set
Actual Time 6:57 AM EDT 7:10 PM EDT
Civil Twilight 6:34 AM EDT 7:32 PM EDT
Nautical Twilight 6:07 AM EDT 7:59 PM EDT
Astronomical Twilight 5:40 AM EDT 8:26 PM EDT
Moon 9:29 AM EDT (9/18) 8:59 PM EDT (9/18)
Length of Visible Light 12h 58m
Length of Day
12h 12m
Waxing Crescent, 9% of the Moon is Illuminated
Sep 18
Waxing Crescent
Sep 22
First Quarter
Sep 29
Full
Oct 8
Last Quarter
Oct 15
New

Hourly Weather History & Observations

Time (EDT) Temp. Heat Index Dew Point Humidity Pressure Visibility Wind Dir Wind Speed Gust Speed Precip Events Conditions
2:00 AM 83 °F - 74 °F 69% 29.99 in 9 mi SE 4.6 mph - -   Scattered Clouds
2:00 AM 82.4 °F 88.2 °F 73.4 °F 74% 29.99 in 6.2 mi SE 4.6 mph - N/A   Mostly Cloudy
3:00 AM 80.6 °F 85.4 °F 73.4 °F 79% 29.98 in 6.2 mi Calm Calm - N/A   Mostly Cloudy
4:00 AM 80.6 °F 85.4 °F 73.4 °F 79% 29.97 in - North - - N/A   Mostly Cloudy
5:00 AM - - - %  in 9 mi SE 3.5 mph - -  
5:00 AM 80.6 °F 86.2 °F 75.2 °F 84% 29.97 in 6.2 mi NNE 3.5 mph - N/A   Mostly Cloudy
8:00 AM 82 °F - 75 °F 73% 30.00 in 9 mi 2.3 mph - -   Partly Cloudy
8:00 AM 82.4 °F 89.5 °F 75.2 °F 79% 30.00 in 6.2 mi Variable 2.3 mph - N/A   Scattered Clouds
9:00 AM 84.2 °F 90.9 °F 73.4 °F 70% 30.02 in 6.2 mi South 4.6 mph - N/A   Scattered Clouds
10:00 AM 86.0 °F 93.4 °F 73.4 °F 66% 30.01 in 6.2 mi SSW 3.5 mph - N/A   Scattered Clouds
11:00 AM 89 °F - 74 °F 54% 30.02 in 9 mi SSW 6.9 mph - -   Scattered Clouds
11:00 AM 89.6 °F 99.8 °F 75.2 °F 62% 30.02 in 6.2 mi SSW 6.9 mph - N/A   Partly Cloudy
1:00 PM 87.8 °F 97.6 °F 75.2 °F 66% 30.02 in 6.2 mi SSW 5.8 mph - N/A   Scattered Clouds
2:00 PM 89 °F - 78 °F 64% 30.00 in 9 mi SSW 6.9 mph - -   Partly Cloudy
2:00 PM 87.8 °F 102.5 °F 78.8 °F 75% 29.99 in 6.2 mi SSW 6.9 mph - N/A   Scattered Clouds
3:00 PM 89.6 °F 99.8 °F 75.2 °F 62% 29.97 in 6.2 mi South 9.2 mph - N/A   Partly Cloudy
4:00 PM 87.8 °F 97.6 °F 75.2 °F 66% 29.96 in 6.2 mi SSE 9.2 mph - N/A   Partly Cloudy
5:00 PM 87 °F - 78 °F 69% 29.96 in 9 mi South 9.2 mph - -   Scattered Clouds
5:00 PM 86.0 °F 86.1 °F 60.8 °F 43% 29.96 in 6.2 mi South 9.2 mph - N/A   Scattered Clouds
6:00 PM 86.0 °F 96.9 °F 77.0 °F 74% 29.96 in 6.2 mi South 6.9 mph - N/A   Mostly Cloudy
7:00 PM 84.2 °F 92.3 °F 75.2 °F 74% 29.97 in 6.2 mi South 5.8 mph - N/A   Mostly Cloudy
8:00 PM 85 °F - 79 °F 79% 29.99 in 9 mi South 4.6 mph - -   Partly Cloudy
8:00 PM 84.2 °F 96.1 °F 78.8 °F 84% 29.98 in 6.2 mi South 4.6 mph - N/A   Mostly Cloudy
9:00 PM 84.2 °F 94.1 °F 77.0 °F 79% 30.01 in 6.2 mi South 3.5 mph - N/A   Mostly Cloudy
10:00 PM 84.2 °F 94.1 °F 77.0 °F 79% 30.02 in 6.2 mi Calm Calm - N/A   Scattered Clouds
11:00 PM 84 °F - 78 °F 76% 30.03 in 9 mi Calm Calm - -   Partly Cloudy
11:00 PM 84.2 °F 94.1 °F 77.0 °F 79% 30.03 in 6.2 mi Calm Calm - N/A   Mostly Cloudy